Retour au catalogue

COCONUT

ActifScienceVLEO
NORAD 69799·PAYLOAD·🇺🇸 United States
Ce nom de satellite n'a pas encore été confirmé par des sources officielles.

Lancé Nov 20, 1998 depuis Baikonur Cosmodrome

Loading…

Prochains Passages (prochaines 24 heures)

TLE

FraisSource: Space-Track

Époque: Sep 14, 2026, 07:23 UTC

1 69799U 98067YP  26257.30772218  .00046618  00000-0  66873-3 0  9990
2 69799  51.6297 217.1831 0010504 142.5369 217.6356 15.55604574 11481

Suivez COCONUT en temps réel avec AllMySat

Download on the App Store